Temperature
18 18 18 18 18 18 18 18 17 17 17 17 17 17 16 16 16 16 16 16 15 15 15 15 15 15 15 15 15 14 14 14 14 14 14 14 14 14
17 17 17 17 17 17 18 18 17 17 17 17 17 17 16 16 16 16 15 15 15 15 15 15 15 15 15 14 14 14 14 14 14 14 14 13 13 13
17 17 17 17 17 17 17 17 17 17 17 17 17 17 16 16 16 16 15 15 15 15 15 15 15 14 14 14 14 14 14 14 13 13 13 13 13 13
17 17 17 17 17 17 17 17 17 17 17 16 16 16 16 16 16 15 15 15 15 15 15 15 14 14 14 14 14 13 13 13 13 13 13 13 13 12
17 17 17 17 17 17 17 17 17 17 16 16 16 16 16 16 15 15 15 14 14 14 14 14 14 14 13 13 13 13 13 13 13 13 13 13 12 12
17 17 17 17 17 17 17 17 16 16 16 16 16 16 15 15 15 15 14 14 14 14 14 14 14 13 13 13 13 13 13 13 12 12 12 12 12 12
17 17 17 17 17 16 16 16 16 16 16 16 16 16 15 15 15 15 14 14 14 14 14 14 13 13 13 13 13 13 13 12 12 12 12 12 12 12
16 16 16 16 16 16 16 16 16 16 16 16 16 15 15 15 15 15 14 14 14 14 14 13 13 13 13 13 13 13 12 12 12 12 12 12 12 11
16 16 16 16 16 16 16 16 16 16 15 15 15 15 15 15 15 15 14 14 14 14 13 13 13 13 13 13 13 13 12 12 12 12 12 11 11 11
16 16 16 16 16 16 15 15 15 15 15 15 15 15 15 15 14 14 14 14 14 13 13 13 13 12 12 13 12 12 12 12 12 11 11 11 11 11
16 16 15 15 15 15 15 15 15 15 15 15 15 15 15 14 14 14 14 13 13 13 13 13 12 12 12 12 12 12 12 12 11 11 11 11 11 10
15 15 15 15 15 15 14 14 14 15 14 14 14 14 14 14 14 14 13 13 13 13 13 13 12 12 12 12 12 12 12 11 11 11 11 11 10 10
15 14 15 15 15 14 14 14 14 14 14 14 14 14 14 14 14 14 13 13 13 13 13 12 12 12 12 11 11 11 11 11 11 11 11 10 10 10
14 14 14 14 14 14 14 14 14 13 13 13 13 13 13 13 13 13 13 13 13 13 13 12 12 12 12 11 11 11 11 11 11 11 10 10 10 10
14 13 13 13 13 13 13 13 13 13 13 12 12 12 13 13 12 12 12 12 12 12 12 12 12 12 11 11 11 11 11 11 10 10 10 10 10 10
13 13 13 13 13 13 13 13 13 13 12 12 12 12 12 12 12 12 12 12 12 12 12 12 12 11 11 11 11 11 11 10 10 10 10 10 10 9
13 12 12 12 12 12 12 12 12 12 12 12 12 11 11 11 11 11 11 11 11 11 11 11 11 11 11 11 10 10 10 10 10 10 9 9 9 9
12 12 12 12 12 12 12 12 12 12 12 11 11 11 11 11 11 11 11 11 11 11 11 11 11 11 10 10 10 10 10 10 10 9 9 9 9 9
12 12 11 11 11 11 11 11 11 11 11 11 11 11 10 10 10 10 10 10 10 10 10 10 10 10 10 10 10 10 10 9 9 9 9 9 9 9
11 11 11 11 11 11 11 11 11 11 10 10 10 10 10 10 10 10 10 10 10 10 10 10 10 10 10 10 10 10 10 9 9 9 9 9 9 8
11 11 11 11 11 11 11 11 10 10 10 10 10 10 10 10 10 10 10 10 10 10 10 10 10 10 10 9 9 9 9 9 9 9 9 8 8 8
11 11 11 11 11 10 10 10 10 10 10 10 10 9 9 9 9 9 9 9 9 9 9 9 9 9 9 9 9 9 9 9 9 9 8 8 8 8
10 10 10 10 10 10 10 10 10 9 9 9 9 9 9 9 9 9 9 9 9 9 9 9 9 9 9 9 9 9 9 9 9 8 8 8 8 8
Wind_Speed
5 5 5 4 3 3 3 3 3 3 3 3 3 5 6 7 10 8 7 10 11 10 9 8 7 7 6 6 6 5 5 4 4 4 4 4 4 4
4 4 5 4 4 4 4 3 3 3 3 2 2 4 5 5 9 8 8 10 11 11 10 9 8 8 7 7 6 6 5 4 4 4 4 3 3 3
4 4 5 5 4 4 3 3 3 3 3 2 1 3 3 3 5 7 8 8 9 12 12 11 10 9 8 7 7 6 6 5 5 4 4 3 3 3
4 5 5 5 5 4 4 4 3 3 3 3 3 3 4 4 5 5 6 7 8 11 14 13 11 10 9 8 7 7 6 6 6 5 4 4 4 3
4 5 5 5 5 4 5 4 3 4 4 4 4 3 3 4 4 4 4 3 5 8 11 11 11 10 9 8 8 7 7 6 6 5 5 4 4 4
5 5 5 5 5 5 5 4 4 4 4 4 4 4 3 4 4 4 3 3 3 5 6 8 10 10 9 9 8 8 8 8 7 6 6 5 5 4
5 4 4 4 3 3 4 2 3 4 4 4 5 4 3 3 4 3 4 3 3 3 4 5 6 6 7 9 9 10 10 9 8 8 7 7 6 6
5 4 4 4 4 4 3 2 2 4 4 4 4 4 4 3 3 3 3 3 3 3 4 5 6 6 6 8 10 12 12 11 10 10 9 9 8 7
5 4 5 4 4 3 4 4 4 5 6 4 5 5 4 3 3 4 4 4 4 3 4 4 4 5 6 8 12 14 14 13 12 11 11 10 10 9
5 4 4 3 3 2 2 3 4 4 5 5 3 3 2 1 2 4 5 5 4 3 3 3 4 4 4 6 12 14 14 13 13 12 11 11 12 11
6 5 4 4 3 3 4 4 4 4 3 2 3 3 3 3 3 3 4 4 4 3 4 3 3 3 3 3 8 14 13 13 13 12 11 11 11 10
4 4 4 5 5 5 5 5 6 5 4 4 4 5 6 6 7 6 5 4 3 3 3 3 3 2 2 3 4 8 9 11 13 12 12 11 10 8
4 3 2 4 5 6 6 5 6 5 4 5 5 5 5 4 5 6 5 4 4 3 3 4 3 3 3 2 3 5 7 7 8 9 11 11 11 10
4 2 2 4 4 5 5 6 6 5 4 4 4 4 4 4 4 4 5 6 5 4 3 3 3 3 3 3 2 4 5 7 7 6 8 10 11 12
3 2 2 3 3 4 7 7 6 5 4 4 4 4 4 3 3 3 4 4 5 6 6 5 4 3 4 4 3 3 3 4 5 4 5 6 7 7
2 2 1 3 4 5 4 5 5 4 4 4 4 4 3 3 3 3 4 4 4 4 4 6 5 4 3 3 2 3 3 4 5 5 5 5 6 8
1 2 2 2 3 3 3 3 4 3 4 4 4 3 2 2 3 3 3 4 4 4 3 2 3 4 3 3 3 3 3 3 4 4 4 5 5 6
1 3 3 4 4 4 3 3 3 3 3 3 3 3 3 3 3 2 2 3 3 4 4 4 3 3 2 3 4 4 3 3 3 4 4 4 5 5
3 4 4 4 4 4 3 3 3 2 2 3 2 3 3 3 3 2 2 2 3 3 3 3 4 4 5 5 4 6 5 4 3 3 4 4 4 4
3 3 3 3 3 2 2 2 1 1 2 2 2 3 2 2 2 2 2 3 3 3 2 2 2 4 5 4 3 3 7 5 4 4 4 4 3 3
3 3 2 2 1 1 1 0 0 1 1 1 2 2 2 2 3 3 3 4 4 4 3 3 4 6 4 2 2 3 3 7 7 4 4 4 4 4
3 2 2 1 0 0 1 1 1 1 1 1 1 2 2 2 3 4 3 3 3 4 4 3 3 4 3 4 5 4 4 4 7 9 8 6 4 4
2 2 1 1 1 1 1 1 1 1 1 1 1 2 2 2 3 3 4 3 3 3 3 2 2 2 4 4 5 4 5 5 4 5 6 9 10 8
Wind_Direction
237 239 241 241 231 233 229 214 210 227 232 204 184 170 159 151 160 172 171 184 188 189 193 197 199 201 201 200 199 199 198 203 212 219 226 233 230 237
244 250 246 249 234 228 236 237 220 215 240 212 195 169 161 164 169 177 181 182 188 189 193 195 195 195 195 193 194 194 193 197 205 207 206 212 217 227
254 250 246 254 253 244 239 235 229 217 228 236 199 162 162 171 165 185 187 182 185 194 195 194 193 191 190 191 194 193 193 195 201 200 194 194 203 222
252 255 251 245 240 249 246 238 231 220 214 230 226 199 198 189 184 199 201 196 185 196 195 192 190 190 190 193 195 195 195 197 199 199 198 200 205 207
247 249 249 245 241 243 241 241 234 229 210 220 231 216 209 199 192 212 212 189 198 188 187 190 189 189 190 190 192 193 195 196 196 196 198 198 199 202
251 248 248 245 242 240 239 235 237 238 226 225 233 225 203 194 193 205 205 207 216 192 176 183 189 190 191 194 196 197 199 200 198 194 193 194 195 193
250 242 237 234 235 238 243 241 237 237 236 232 231 228 213 195 206 207 211 206 216 199 179 184 180 187 195 201 205 203 199 198 195 194 194 194 195 194
247 238 233 221 211 204 207 219 228 235 243 246 243 229 218 209 206 214 209 214 226 197 200 210 188 192 193 195 201 198 197 197 199 200 201 202 202 201
249 244 249 241 208 202 202 209 222 233 235 246 253 250 240 220 211 222 226 228 233 206 199 222 198 200 195 195 192 194 198 202 205 206 206 206 208 210
247 246 246 249 239 214 223 234 234 239 241 235 242 262 263 248 219 225 230 231 239 214 185 217 206 208 193 182 191 192 197 202 205 207 209 211 212 215
247 243 230 223 209 205 219 238 242 242 241 205 203 216 224 229 223 228 233 228 232 217 201 214 200 200 196 198 193 193 195 198 203 208 211 214 215 214
253 245 229 204 192 203 226 231 239 240 229 229 229 232 230 227 221 219 229 233 240 218 194 200 203 191 209 199 186 191 197 204 207 211 215 216 215 211
257 245 223 182 200 219 230 238 238 242 234 231 229 226 226 222 216 216 217 221 229 231 200 191 210 203 207 200 192 190 193 195 202 214 218 216 211 206
259 248 218 195 214 225 229 239 248 247 244 240 238 229 224 224 219 216 215 216 219 222 217 196 208 203 215 225 213 189 194 191 190 199 204 208 213 220
279 276 224 210 224 232 233 236 241 238 237 242 241 240 233 224 215 212 214 220 230 229 212 206 211 210 210 225 220 194 198 200 192 190 193 196 202 208
273 291 245 239 257 254 237 235 230 230 226 239 247 241 224 208 213 215 215 211 228 236 215 201 209 212 217 227 216 206 197 192 190 191 198 203 201 199
276 247 230 230 237 244 237 227 222 219 229 239 247 251 238 217 218 226 228 223 220 217 205 200 208 207 207 212 232 223 203 204 190 187 196 205 204 201
226 251 235 229 234 234 235 233 226 223 225 233 238 239 241 236 234 230 226 227 232 221 207 196 199 209 223 246 230 230 226 217 199 189 199 211 216 205
219 245 242 236 237 237 234 237 229 221 224 238 240 244 248 244 234 222 216 238 246 238 219 204 200 209 226 237 234 219 220 219 209 209 210 212 218 213
247 251 248 240 236 241 245 241 233 218 209 219 230 238 245 256 256 242 223 230 241 240 232 219 206 214 223 234 234 222 211 210 209 216 220 215 219 205
252 256 263 264 258 230 231 252 233 230 226 234 229 237 238 242 251 245 234 237 239 239 229 222 225 219 220 213 224 224 208 207 205 207 214 215 221 221
252 254 259 277 273 181 189 198 204 243 261 261 253 246 240 242 244 248 247 240 237 245 250 237 214 210 214 220 230 225 217 209 217 226 228 220 208 217
256 259 257 251 219 208 209 214 220 233 252 283 293 285 270 258 255 245 243 250 250 251 246 232 216 218 224 224 231 232 225 219 215 215 236 237 232 230
Height
1534 1534 1535 1535 1536 1537 1538 1539 1540 1540 1540 1540 1541 1540 1540 1540 1540 1540 1540 1540 1541 1541 1541 1541 1541 1541 1541 1541 1541 1541 1541 1541 1541 1541 1541 1541 1541 1541
1530 1531 1531 1532 1533 1534 1535 1535 1536 1537 1537 1538 1538 1538 1538 1538 1538 1538 1537 1538 1538 1538 1538 1538 1538 1538 1538 1538 1538 1538 1538 1538 1538 1537 1537 1537 1538 1538
1527 1527 1527 1528 1529 1530 1531 1532 1533 1533 1534 1534 1535 1536 1536 1536 1536 1535 1535 1535 1535 1535 1535 1535 1535 1535 1535 1535 1535 1535 1534 1534 1534 1534 1534 1534 1534 1534
1523 1523 1523 1524 1525 1526 1528 1528 1529 1530 1531 1530 1532 1533 1533 1533 1533 1533 1533 1532 1532 1532 1532 1532 1532 1532 1532 1532 1531 1531 1531 1531 1531 1531 1531 1531 1531 1531
1520 1519 1520 1521 1521 1522 1524 1525 1526 1527 1527 1528 1528 1529 1530 1530 1530 1530 1530 1529 1529 1529 1529 1529 1529 1529 1529 1528 1528 1528 1527 1528 1528 1528 1528 1528 1528 1528
1516 1516 1516 1516 1517 1518 1519 1520 1522 1523 1524 1524 1524 1525 1525 1526 1526 1526 1526 1526 1526 1526 1526 1525 1525 1525 1525 1525 1525 1524 1524 1524 1524 1524 1525 1525 1525 1525
1512 1512 1512 1512 1513 1514 1515 1516 1517 1518 1519 1520 1520 1521 1521 1521 1521 1522 1522 1522 1522 1523 1522 1522 1521 1521 1521 1521 1521 1521 1521 1521 1521 1521 1522 1522 1522 1522
1508 1508 1508 1509 1509 1510 1511 1512 1513 1514 1514 1515 1516 1516 1516 1517 1517 1518 1518 1518 1518 1519 1518 1518 1518 1518 1518 1518 1518 1518 1518 1518 1518 1518 1518 1518 1518 1519
1504 1504 1504 1505 1505 1506 1506 1507 1508 1509 1510 1511 1511 1511 1511 1512 1513 1513 1513 1513 1513 1514 1515 1514 1515 1514 1514 1514 1515 1515 1515 1515 1515 1515 1515 1515 1515 1516
1500 1500 1500 1500 1501 1501 1502 1503 1503 1504 1505 1505 1506 1506 1507 1507 1508 1509 1509 1509 1510 1510 1510 1510 1510 1510 1511 1510 1511 1511 1511 1511 1511 1511 1511 1512 1512 1512
1495 1495 1496 1496 1496 1497 1497 1498 1499 1499 1500 1501 1501 1501 1502 1502 1503 1504 1504 1505 1505 1504 1506 1506 1506 1506 1507 1506 1507 1507 1508 1508 1508 1508 1508 1508 1509 1509
1491 1491 1491 1491 1492 1492 1493 1493 1493 1494 1495 1495 1496 1496 1497 1497 1498 1499 1499 1500 1500 1500 1501 1502 1502 1503 1503 1503 1503 1503 1504 1504 1505 1505 1505 1505 1505 1506
1486 1486 1487 1487 1487 1488 1488 1488 1489 1490 1490 1491 1491 1491 1492 1492 1493 1493 1494 1495 1495 1496 1496 1497 1498 1499 1499 1499 1499 1499 1500 1500 1501 1501 1502 1502 1502 1503
1482 1482 1483 1483 1483 1484 1484 1484 1485 1486 1486 1486 1487 1487 1487 1487 1488 1489 1489 1490 1490 1491 1492 1493 1493 1494 1494 1495 1495 1496 1496 1497 1497 1497 1498 1499 1499 1499
1478 1478 1479 1479 1479 1479 1480 1480 1481 1481 1481 1482 1482 1483 1483 1483 1484 1485 1485 1485 1486 1486 1487 1487 1489 1489 1490 1491 1491 1492 1492 1493 1493 1494 1494 1495 1495 1495
1474 1474 1474 1475 1475 1475 1475 1476 1476 1477 1477 1477 1478 1479 1479 1479 1480 1480 1480 1480 1481 1481 1481 1483 1484 1485 1485 1486 1487 1487 1488 1488 1489 1489 1490 1491 1491 1491
1470 1470 1470 1470 1470 1471 1471 1471 1472 1472 1472 1473 1474 1474 1475 1475 1475 1476 1476 1476 1477 1477 1477 1478 1480 1480 1481 1482 1483 1483 1484 1484 1485 1486 1486 1487 1487 1487
1467 1466 1466 1466 1466 1466 1467 1467 1467 1467 1468 1469 1469 1470 1470 1471 1471 1472 1472 1473 1473 1473 1474 1474 1475 1476 1477 1477 1479 1479 1480 1480 1481 1482 1482 1483 1483 1483
1463 1462 1462 1462 1463 1463 1463 1464 1464 1464 1464 1465 1465 1466 1467 1467 1467 1467 1468 1469 1469 1469 1470 1471 1471 1472 1472 1472 1473 1475 1475 1476 1477 1478 1478 1478 1479 1479
1459 1458 1458 1459 1459 1460 1460 1460 1460 1460 1461 1461 1461 1462 1462 1463 1463 1463 1463 1464 1465 1466 1466 1467 1467 1468 1468 1469 1469 1470 1471 1472 1472 1473 1474 1474 1475 1476
1456 1455 1455 1456 1456 1456 1456 1456 1456 1457 1457 1457 1457 1458 1458 1458 1459 1459 1459 1460 1461 1462 1462 1462 1463 1464 1465 1466 1466 1466 1467 1468 1468 1469 1470 1470 1470 1470
1453 1453 1453 1453 1453 1453 1453 1453 1453 1454 1454 1454 1454 1454 1454 1454 1454 1455 1456 1456 1457 1458 1458 1459 1459 1460 1461 1461 1461 1462 1462 1463 1464 1464 1465 1466 1465 1465
1451 1451 1451 1451 1450 1450 1450 1450 1451 1451 1451 1451 1451 1450 1451 1451 1451 1451 1452 1453 1453 1454 1454 1455 1455 1456 1456 1457 1457 1458 1458 1459 1459 1459 1460 1461 1461 1461